GODA FMMI-FMMT

Flight info

Callsign GODA
Flight time N/A
Altitude FL100
Route
Aircraft A333/H-VGDW/C

Departure

Time 2026-05-03 20:49
Airport Ivato International Airport (FMMI)

Arrival

Time N/A
Airport Toamasina Ambalamanasy Airport (FMMT)
Time Latitude Longitude Altitude Speed Heading
2026-05-03 20:42 -18.79922 47.48133 4217 ft 0 kts 284°
2026-05-03 20:44 -18.79912 47.48084 4216 ft 21 kts 281°
2026-05-03 20:45 -18.79881 47.47902 4213 ft 29 kts 279°
2026-05-03 20:45 -18.79849 47.47723 4213 ft 24 kts 280°
2026-05-03 20:45 -18.79789 47.47609 4217 ft 14 kts 336°
2026-05-03 20:45 -18.79753 47.47598 4217 ft 1 kts 353°
2026-05-03 20:46 -18.79684 47.47573 4217 ft 25 kts 324°
2026-05-03 20:46 -18.79611 47.47315 4226 ft 55 kts 278°
2026-05-03 20:46 -18.79562 47.46905 4246 ft 65 kts 276°
2026-05-03 20:46 -18.79484 47.46545 4259 ft 19 kts 306°
2026-05-03 20:47 -18.79472 47.46484 4260 ft 5 kts 168°
2026-05-03 20:47 -18.79475 47.46488 4260 ft 1 kts 126°
2026-05-03 20:47 -18.79477 47.46492 4260 ft 0 kts 123°
2026-05-03 20:47 -18.79480 47.46498 4260 ft 1 kts 123°
2026-05-03 20:48 -18.79484 47.46504 4260 ft 0 kts 117°
2026-05-03 20:48 -18.79485 47.46509 4260 ft 4 kts 111°
2026-05-03 20:48 -18.79518 47.46709 4254 ft 70 kts 99°
2026-05-03 20:49 -18.79626 47.47448 4222 ft 154 kts 100°
2026-05-03 20:49 -18.79828 47.48687 4405 ft 206 kts 104°
2026-05-03 20:49 -18.80141 47.50137 5223 ft 212 kts 107°
2026-05-03 20:49 -18.80461 47.51599 6155 ft 213 kts 95°
2026-05-03 20:50 -18.80488 47.53021 7435 ft 194 kts 99°
2026-05-03 20:50 -18.80665 47.54328 8526 ft 183 kts 101°
2026-05-03 20:50 -18.80692 47.55600 9402 ft 182 kts 75°
2026-05-03 20:50 -18.80148 47.56824 10056 ft 195 kts 67°
2026-05-03 20:51 -18.79561 47.58175 10271 ft 218 kts 69°
2026-05-03 20:51 -18.78942 47.59675 10661 ft 232 kts 69°
2026-05-03 20:51 -18.78307 47.61233 11285 ft 235 kts 69°
2026-05-03 20:51 -18.77679 47.62786 11916 ft 237 kts 69°
2026-05-03 20:52 -18.77041 47.64369 12521 ft 241 kts 69°
2026-05-03 20:52 -18.76395 47.65970 13133 ft 244 kts 69°
2026-05-03 20:52 -18.75743 47.67588 13719 ft 247 kts 69°
2026-05-03 20:52 -18.75080 47.69232 14311 ft 250 kts 69°
2026-05-03 20:53 -18.74417 47.70877 14905 ft 252 kts 69°
2026-05-03 20:53 -18.73732 47.72576 15493 ft 256 kts 69°
2026-05-03 20:53 -18.73035 47.74303 16065 ft 260 kts 69°
2026-05-03 20:53 -18.72340 47.76023 16595 ft 251 kts 69°
2026-05-03 20:54 -18.71702 47.77599 16916 ft 224 kts 69°
2026-05-03 20:54 -18.70449 47.80711 16949 ft 256 kts 69°
2026-05-03 20:54 -18.69772 47.82383 16883 ft 260 kts 69°
2026-05-03 20:55 -18.69128 47.83974 16854 ft 250 kts 69°
2026-05-03 20:55 -18.68494 47.85543 16865 ft 245 kts 69°
2026-05-03 20:55 -18.67841 47.87158 16870 ft 246 kts 68°
2026-05-03 20:55 -18.67189 47.88768 16868 ft 247 kts 69°
2026-05-03 20:56 -18.66559 47.90424 16861 ft 247 kts 71°
2026-05-03 20:56 -18.65957 47.92119 16864 ft 247 kts 71°
2026-05-03 20:56 -18.65356 47.93797 16858 ft 247 kts 71°
2026-05-03 20:56 -18.64764 47.95445 16852 ft 247 kts 71°
2026-05-03 20:57 -18.64171 47.97096 16850 ft 247 kts 71°
2026-05-03 20:57 -18.63577 47.98745 16845 ft 246 kts 71°
2026-05-03 20:57 -18.62977 48.00416 16846 ft 246 kts 71°
2026-05-03 20:57 -18.62384 48.02069 16840 ft 247 kts 71°
2026-05-03 20:58 -18.61783 48.03738 16834 ft 245 kts 71°
2026-05-03 20:58 -18.61191 48.05387 16840 ft 245 kts 71°
2026-05-03 20:58 -18.60590 48.07060 16835 ft 246 kts 71°
2026-05-03 20:58 -18.59995 48.08714 16842 ft 246 kts 71°
2026-05-03 20:59 -18.59401 48.10366 16834 ft 246 kts 71°
2026-05-03 20:59 -18.58805 48.12022 16838 ft 246 kts 71°
2026-05-03 20:59 -18.58212 48.13668 16836 ft 247 kts 71°
2026-05-03 20:59 -18.57622 48.15305 16817 ft 246 kts 71°
2026-05-03 21:00 -18.57025 48.16965 16816 ft 247 kts 71°
2026-05-03 21:00 -18.56826 48.17517 16814 ft 247 kts 71°
2026-05-03 21:00 -18.55830 48.20278 16817 ft 246 kts 71°
2026-05-03 21:00 -18.55227 48.21953 16795 ft 246 kts 71°
2026-05-03 21:01 -18.54631 48.23607 16804 ft 245 kts 71°
2026-05-03 21:01 -18.54050 48.25216 16799 ft 246 kts 71°
2026-05-03 21:01 -18.53438 48.26912 16795 ft 245 kts 71°
2026-05-03 21:01 -18.52838 48.28576 16803 ft 245 kts 71°
2026-05-03 21:02 -18.52236 48.30242 16808 ft 245 kts 71°
2026-05-03 21:02 -18.51635 48.31905 16803 ft 245 kts 71°
2026-05-03 21:02 -18.51034 48.33570 16810 ft 245 kts 71°
2026-05-03 21:02 -18.50431 48.35240 16814 ft 245 kts 71°
2026-05-03 21:03 -18.49825 48.36917 16820 ft 245 kts 71°
2026-05-03 21:03 -18.49220 48.38589 16822 ft 246 kts 71°
2026-05-03 21:03 -18.48616 48.40260 16815 ft 246 kts 71°
2026-05-03 21:03 -18.48016 48.41916 16819 ft 245 kts 71°
2026-05-03 21:04 -18.47406 48.43600 16821 ft 245 kts 71°
2026-05-03 21:04 -18.46806 48.45260 16822 ft 245 kts 71°
2026-05-03 21:04 -18.46205 48.46918 16840 ft 245 kts 71°
2026-05-03 21:04 -18.45602 48.48583 16832 ft 246 kts 71°
2026-05-03 21:05 -18.44997 48.50251 16825 ft 245 kts 71°
2026-05-03 21:05 -18.44397 48.51906 16816 ft 244 kts 71°
2026-05-03 21:05 -18.43795 48.53568 16820 ft 245 kts 71°
2026-05-03 21:05 -18.43189 48.55239 16789 ft 245 kts 71°
2026-05-03 21:06 -18.42588 48.56894 16797 ft 245 kts 71°
2026-05-03 21:06 -18.42003 48.58505 16789 ft 245 kts 71°
2026-05-03 21:06 -18.41421 48.60108 16775 ft 245 kts 71°
2026-05-03 21:06 -18.40844 48.61697 16772 ft 245 kts 71°
2026-05-03 21:07 -18.40259 48.63309 16761 ft 245 kts 71°
2026-05-03 21:07 -18.39663 48.64948 16752 ft 245 kts 71°
2026-05-03 21:07 -18.39065 48.66592 16761 ft 245 kts 71°
2026-05-03 21:07 -18.38463 48.68247 16755 ft 245 kts 71°
2026-05-03 21:08 -18.37776 48.69876 16711 ft 247 kts 57°
2026-05-03 21:08 -18.36692 48.71275 16676 ft 247 kts 53°
2026-05-03 21:08 -18.35610 48.72671 16652 ft 247 kts 58°
2026-05-03 21:08 -18.35009 48.74305 16573 ft 243 kts 88°
2026-05-03 21:09 -18.34888 48.76048 16527 ft 241 kts 83°
2026-05-03 21:09 -18.34560 48.77770 16497 ft 242 kts 78°
2026-05-03 21:09 -18.34121 48.79472 16470 ft 243 kts 75°
2026-05-03 21:09 -18.33619 48.81145 16441 ft 243 kts 73°
2026-05-03 21:10 -18.33076 48.82805 16416 ft 242 kts 73°
2026-05-03 21:10 -18.32509 48.84462 16375 ft 242 kts 72°
2026-05-03 21:10 -18.31927 48.86116 16364 ft 242 kts 72°
2026-05-03 21:10 -18.31337 48.87768 16348 ft 242 kts 71°
2026-05-03 21:11 -18.30742 48.89418 16308 ft 242 kts 71°
2026-05-03 21:11 -18.30147 48.91061 16271 ft 241 kts 71°
2026-05-03 21:11 -18.29556 48.92689 16238 ft 241 kts 71°
2026-05-03 21:11 -18.28964 48.94317 16182 ft 238 kts 71°
2026-05-03 21:12 -18.28381 48.95914 15913 ft 238 kts 71°
2026-05-03 21:12 -18.27815 48.97502 15627 ft 238 kts 69°
2026-05-03 21:12 -18.26861 48.98906 15343 ft 242 kts 47°
2026-05-03 21:12 -18.25684 49.00144 15140 ft 239 kts 49°
2026-05-03 21:13 -18.24534 49.01373 14915 ft 238 kts 49°
2026-05-03 21:13 -18.23380 49.02596 14690 ft 237 kts 49°
2026-05-03 21:13 -18.22228 49.03816 14433 ft 237 kts 49°
2026-05-03 21:13 -18.21085 49.05024 14204 ft 235 kts 49°
2026-05-03 21:14 -18.19941 49.06234 13993 ft 233 kts 49°
2026-05-03 21:14 -18.18816 49.07424 13768 ft 232 kts 49°
2026-05-03 21:14 -18.17682 49.08621 13529 ft 231 kts 49°
2026-05-03 21:14 -18.16563 49.09803 13295 ft 230 kts 49°
2026-05-03 21:15 -18.15450 49.10978 13069 ft 229 kts 49°
2026-05-03 21:15 -18.14342 49.12150 12837 ft 228 kts 49°
2026-05-03 21:15 -18.13233 49.13320 12620 ft 227 kts 49°
2026-05-03 21:15 -18.12133 49.14481 12408 ft 226 kts 49°
2026-05-03 21:16 -18.11037 49.15638 12197 ft 225 kts 49°
2026-05-03 21:16 -18.09952 49.16782 11988 ft 223 kts 49°
2026-05-03 21:16 -18.08867 49.17926 11782 ft 221 kts 49°
2026-05-03 21:16 -18.07789 49.19064 11577 ft 220 kts 49°
2026-05-03 21:17 -18.06721 49.20191 11362 ft 219 kts 50°
2026-05-03 21:17 -18.06009 49.20941 11224 ft 218 kts 50°
2026-05-03 21:17 -18.04590 49.22438 10948 ft 217 kts 50°
2026-05-03 21:17 -18.03531 49.23554 10726 ft 217 kts 50°
2026-05-03 21:18 -18.02473 49.24669 10512 ft 215 kts 50°
2026-05-03 21:18 -18.01425 49.25774 10301 ft 214 kts 50°
2026-05-03 21:18 -18.00378 49.26875 10085 ft 213 kts 50°
2026-05-03 21:18 -17.99343 49.27967 9900 ft 212 kts 50°
2026-05-03 21:19 -17.98326 49.29038 9699 ft 211 kts 50°
2026-05-03 21:19 -17.97307 49.30111 9498 ft 210 kts 50°
2026-05-03 21:19 -17.96289 49.31183 9311 ft 208 kts 50°
2026-05-03 21:19 -17.95273 49.32252 9103 ft 212 kts 50°
2026-05-03 21:20 -17.94193 49.33394 8502 ft 233 kts 50°
2026-05-03 21:20 -17.93354 49.34836 7906 ft 240 kts 78°
2026-05-03 21:20 -17.93339 49.36560 7335 ft 248 kts 106°
2026-05-03 21:20 -17.94162 49.38109 6760 ft 259 kts 133°
2026-05-03 21:21 -17.95650 49.39114 6167 ft 271 kts 159°
2026-05-03 21:21 -17.97458 49.39331 5579 ft 284 kts 184°
2026-05-03 21:21 -17.99322 49.38721 5098 ft 287 kts 202°
2026-05-03 21:21 -18.01069 49.38084 5087 ft 255 kts 184°
2026-05-03 21:22 -18.02130 49.38112 5067 ft 226 kts 167°